FENGYUN 1C DEB, 31430

Orbit data source: Space-Track

FENGYUN 1C DEB, 31430 is space debris in SSO originally from a launch on Mon, 10 May 1999 UTC launched from the Taiyaun Space Center, China (TSC). Fengyun 1C debris stems from the Chinese weather satellite Fengyun-1C, which was intentionally destroyed by a Chinese anti-satellite missile in 2007. This event dramatically increased the amount of space debris, with thousands of trackable fragments posing hazards to satellites and human spaceflight. The Fengyun 1C debris cloud has become a focal point in discussions about space sustainability and the need for international regulations to prevent the creation of new debris.

Loading next visibility...
Identifier
31430, 1999-025BTS
Orbit
SSO
Country
Flag of CNCN / PRC
Related business
Manufacturer
Unknown
Mission
Spacecraft
Bus & Motor
Unknown
Mass
Unknown
Launch date (UTC)
1999-05-10 (27 years ago)
Launch vehicle
Unknown
Launch site
Taiyaun Space Center, China (TSC)
Object type
Payload
Rocket body
Debris
Shape & HBR
Unknown shape, 0.1 m
Radar Cross Section
Small (<0.1 m²)

Expand to show TLE details & history
Last TLE update: 3 days ago

TLE from 3 days ago
0 FENGYUN 1C DEB
1 31430U 99025BTS 26102.96269024  .00001343  00000-0  57653-3 0  9995
2 31430  98.7274 170.6103 0027227  51.8906 124.2780 14.26211147978453
Epoch: 2026-04-12T23:06Z
TLE epoch observation values (Epoch: 2026-04-12T23:06:16.436Z)
Latitude
3.43741°
Longitude
163.40722°
Altitude
818.018 km
Speed
7.439 km/s
True Right ascension
23h 24m 32s
True Declination
3° 25' 01"
Sunlit
Object was in daylight at epoch
Visualization orbit readout
Latitude
Unknown
Longitude
Unknown
Altitude
Unknown
Speed
Unknown
Apparent Right ascension
Unknown
Apparent Declination
Unknown
Sunlit
N/A
Visualization observer readout
Local Sidereal Time
16:24:41
Azimuth
Unknown
Elevation
Unknown
Doppler factor
Unknown
Orbital elements
Apogee altitude
821.123 km
Perigee altitude
782.026 km
Semi-major axis
7,179.712 km
Eccentricity
0.00272
Inclination
98.7274°
RAAN
170.6103°
Arg. of periapsis
51.8906°
True anomaly
124.53531°
Mean anomaly
124.278°
Eccentric anomaly
124.40671°
Mean motion
3.56765 °/min
Orbital period
100.91 mins
BSTAR
0.00057653
Loading maneuver chart data...
Computing Atmospheric mass density...

Documentation

Showing up to 5 results
|